[[{"header":{"parameterUnit":"m.s-1","parameterCategory":2,"la1":30.2991,"la2":30.254,"lo1":-89.0895,"lo2":-89.0444,"dy":0.0017,"dx":0.0017,"nx":28,"ny":28,"refTime":"2025-03-29T03:00:00:Z","depth":"0","parameterNumber":2,"parameterNumberName":"U-component_of_CURRENTS"},"data":[0,0,0,0,0,0,0,0,0,0,0,0,0,0,0,0,0,0,0,0,0,0,0,0,0,0,0,0,0,0,0,0,0,0,0,0,0,0,0,0,0,0,0,0,0,0,0,0,0,0,0,0,0,0,0,0,0,0,0.1584,0.1585,0,0.1646,0.1647,0.1647,0.1669,0.1669,0.1669,0.1669,0.1663,0.1663,0.1663,0,0,0,0,0,0,0,0,0,0,0,0,0,0.1492,0.1493,0.1584,0.1585,0.1586,0.1646,0.1647,0.1647,0.1669,0.1669,0.1669,0.1669,0.1663,0.1663,0.1663,0,0,0,0,0,0,0,0,0,0,0,0,0,0.1538,0.1494,0.1584,0.1605,0.1608,0.1646,0.1647,0.1647,0.1669,0.1669,0.1669,0.1669,0.1663,0.1663,0.1663,0.1663,0,0,0.1662,0.1662,0,0,0,0,0,0,0,0,0.1536,0.1541,0.1601,0.1604,0.1607,0.1652,0.1612,0.165,0.1669,0.1643,0.1669,0.1669,0.1654,0.1655,0.1664,0.1662,0.1662,0.1662,0.1662,0.1662,0.1662,0,0,0,0,0,0,0,0.1532,0.1539,0.1606,0.1602,0.1606,0.1615,0.1621,0.162,0.1645,0.1646,0.1648,0.1658,0.1655,0.1665,0.1664,0.1662,0.1662,0.1662,0.1662,0.1662,0.1689,0.1689,0,0,0,0,0,0,0.1529,0.1536,0.1604,0.1608,0.1573,0.1617,0.1624,0.1635,0.1647,0.165,0.1658,0.1659,0.1665,0.1664,0.1664,0.1674,0.1662,0.1662,0.1662,0.1688,0.1689,0.169,0,0,0,0,0,0,0.1527,0.1535,0.1602,0.1575,0.1585,0.1619,0.1632,0.1637,0.165,0.1658,0.1659,0.1666,0.1665,0.1664,0.1673,0.1674,0.1662,0.1661,0.1687,0.1688,0.1689,0.1688,0,0,0,0,0,0,0.1524,0.1534,0.1537,0.1575,0.1586,0.1626,0.1632,0.1638,0.1657,0.1659,0.1665,0.1664,0.1665,0.1673,0.1672,0.1673,0.1661,0.1686,0.1687,0.1689,0.1687,0.1689,0.1691,0,0,0,0,0,0.1521,0.1525,0.1536,0.1545,0.1591,0.1626,0.1632,0.1655,0.1658,0.1665,0.1674,0.1664,0.1682,0.1673,0.1673,0.1673,0.1685,0.1687,0.1689,0.1686,0.1689,0.1691,0,0,0,0,0,0,0.1483,0.1529,0.1542,0.1559,0.1592,0.1631,0.1638,0.1656,0.167,0.1668,0.1672,0.1672,0.1679,0.1682,0.1672,0.1689,0.1683,0.1685,0.1682,0.1684,0.1686,0.1671,0.1661,0,0,0,0,0,0.1478,0.1494,0.1539,0.1552,0.1567,0.1602,0.1618,0.1637,0.1659,0.1665,0.167,0.1678,0.1686,0.1689,0.1694,0.1701,0.1719,0.1704,0.1706,0.1707,0.1697,0.1728,0.1732,0.1696,0.1696,0.1696,0,0,0.1467,0.1494,0.1503,0.1545,0.1569,0.1593,0.1611,0.1637,0.1654,0.166,0.1672,0.168,0.169,0.17,0.1704,0.1702,0.1735,0.171,0.1711,0.1699,0.1731,0.1734,0.1737,0.1697,0.1697,0.1697,0,0,0.1458,0.1477,0.1491,0.1518,0.1559,0.1582,0.1591,0.1631,0.1644,0.1663,0.1673,0.1684,0.1695,0.1705,0.1712,0.1727,0.1742,0.1733,0.1729,0.176,0.1763,0.1765,0.1822,0.183,0.1736,0.1736,0.1736,0,0.1444,0.147,0.1499,0.1521,0.1542,0.1577,0.1598,0.1618,0.1654,0.1665,0.1665,0.1692,0.1696,0.1715,0.1721,0.1729,0.1759,0.1717,0.1761,0.1764,0.1767,0.1824,0.1832,0.1736,0.1736,0.1736,0.1736,0,0.1451,0.1471,0.1479,0.1519,0.1542,0.1566,0.1603,0.162,0.1637,0.1657,0.1677,0.169,0.171,0.1714,0.1718,0.1742,0.1764,0.1758,0.1751,0.177,0.183,0.1838,0.1736,0.1736,0.1736,0.1736,0,0,0.1425,0.1476,0.1479,0.15,0.1545,0.1568,0.1591,0.1628,0.1646,0.1664,0.1688,0.1697,0.1709,0.1717,0.1731,0.1747,0.1799,0.1758,0.1759,0.1807,0.1892,0.1941,0.1955,0.1801,0.1802,0.1802,0.1937,0,0.1426,0.1459,0.1487,0.1518,0.154,0.1576,0.1596,0.1629,0.1654,0.1682,0.1696,0.1719,0.1712,0.1727,0.1743,0.1788,0.1817,0.1764,0.1872,0.1876,0.191,0.1965,0.1943,0.2063,0.1946,0.1947,0.1948,0,0.1427,0.1452,0.1481,0.1527,0.154,0.1559,0.1603,0.1631,0.1672,0.1692,0.1716,0.1733,0.1771,0.1754,0.1837,0.1808,0.1846,0.1871,0.1877,0.1922,0.1939,0.2021,0.2084,0.2046,0.1961,0.196,0.1959,0,0.14,0.1448,0.1469,0.1485,0.1539,0.1556,0.1586,0.1628,0.1659,0.1704,0.1733,0.177,0.1818,0.1848,0.1917,0.1881,0.2014,0.1976,0.2057,0.2062,0.2063,0.2067,0.2091,0.2022,0.2022,0.2022,0.2021,0,0.1391,0.1409,0.1458,0.1471,0.15,0.1542,0.1576,0.1611,0.1665,0.1714,0.174,0.1801,0.1841,0.1924,0.1949,0.2061,0.2055,0.2071,0.21,0.2068,0.207,0.2052,0.2019,0.2027,0.2025,0.2024,0.2024,0,0.1357,0.139,0.1417,0.147,0.1488,0.1508,0.1574,0.1603,0.1659,0.1729,0.1748,0.1852,0.1976,0.203,0.2123,0.2136,0.2166,0.224,0.2218,0.2241,0.2248,0.2217,0.2174,0.2097,0.2339,0.2341,0.2343,0,0.1342,0.1352,0.1406,0.1427,0.145,0.149,0.1523,0.1589,0.1633,0.1774,0.1815,0.1957,0.207,0.2245,0.2296,0.2381,0.2272,0.2392,0.2297,0.2264,0.225,0.2115,0.204,0.2315,0.2317,0.2318,0.2319,0,0.131,0.1326,0.135,0.1395,0.1431,0.1475,0.1533,0.1571,0.1672,0.1751,0.1903,0.2008,0.2206,0.2314,0.2432,0.2462,0.2292,0.2417,0.2377,0.2234,0.2092,0.2028,0.2229,0.2328,0.2327,0.2327,0.2326,0.2326,0.1276,0.1283,0.1319,0.136,0.1407,0.1463,0.1485,0.1571,0.1661,0.1788,0.1929,0.2079,0.2278,0.2454,0.2464,0.2483,0.2386,0.2426,0.2398,0.2269,0.2158,0.24,0.2527,0.2527,0.2528,0.2528,0.2528,0,0.1229,0.125,0.1287,0.1335,0.1371,0.1416,0.1492,0.1514,0.1613,0.1782,0.1915,0.2155,0.2306,0.2417,0.2534,0.2475,0.23,0.2413,0.2202,0.213,0.2368,0.2331,0.2427,0.2427,0.2427,0.2428,0.2428,0.2428,0.12,0.1216,0.1243,0.1288,0.1327,0.1359,0.1394,0.1453,0.1556,0.173,0.1875,0.2018,0.2299,0.2525,0.2535,0.2464,0.2231,0.2178,0.2096,0.2276,0.2273,0.2269,0.2226,0.2299,0.2299,0.1771,0.1768,0.1765]},{"header":{"parameterUnit":"m.s-1","parameterCategory":2,"la1":30.2991,"la2":30.254,"lo1":-89.0895,"lo2":-89.0444,"dy":0.0017,"dx":0.0017,"nx":28,"ny":28,"refTime":"2025-03-29T03:00:00:Z","depth":"0","parameterNumber":3,"parameterNumberName":"V-component_of_CURRENTS"},"data":[0,0,0,0,0,0,0,0,0,0,0,0,0,0,0,0,0,0,0,0,0,0,0,0,0,0,0,0,0,0,0,0,0,0,0,0,0,0,0,0,0,0,0,0,0,0,0,0,0,0,0,0,0,0,0,0,0,0,0.0072,0.0072,0,0.0038,0.0037,0.0037,0.0014,0.0014,0.0014,0.0014,-0.0058,-0.006,-0.0062,0,0,0,0,0,0,0,0,0,0,0,0,0,0.0096,0.0095,0.0072,0.0072,0.0072,0.0038,0.0037,0.0036,0.0014,0.0014,0.0014,0.0014,-0.0057,-0.0059,-0.0062,0,0,0,0,0,0,0,0,0,0,0,0,0,0.0074,0.0095,0.0072,0.0057,0.0056,0.0038,0.0037,0.0036,0.0014,0.0014,0.0014,0.0014,-0.0056,-0.0059,-0.0062,-0.0079,0,0,-0.0071,-0.0072,0,0,0,0,0,0,0,0,0.0076,0.0073,0.006,0.0058,0.0057,0.0031,0.0019,-0.0004,0.0014,0.0028,0.0014,0.0014,-0.003,-0.0035,-0.0043,-0.0083,-0.0086,-0.0071,-0.0073,-0.0074,-0.0075,0,0,0,0,0,0,0,0.0077,0.0075,0.0057,0.006,0.0058,0.0045,0.0042,0.0015,-0.0002,0.0027,0.0026,0.0024,-0.0032,-0.0041,-0.0045,-0.0087,-0.0071,-0.0073,-0.0075,-0.0076,-0.014,-0.014,0,0,0,0,0,0,0.0086,0.0076,0.0058,0.0056,0.0068,0.0045,0.0041,0.0038,-0.0001,-0.0007,0.0024,0.0023,-0.0036,-0.0042,-0.0048,-0.0068,-0.0074,-0.0077,-0.0078,-0.014,-0.014,-0.014,0,0,0,0,0,0,0.0086,0.0084,0.0059,0.0067,0.0063,0.0044,0.0041,0.0038,0.003,-0.0003,-0.0009,0.0021,-0.0036,-0.0044,-0.0069,-0.0071,-0.0078,-0.008,-0.014,-0.014,-0.014,-0.011,0,0,0,0,0,0,0.0087,0.0085,0.0081,0.0067,0.0063,0.0054,0.0041,0.0037,0.003,0.0029,-0.0008,-0.0014,-0.0037,-0.0064,-0.0072,-0.0075,-0.0083,-0.014,-0.014,-0.014,-0.0111,-0.0108,-0.0107,0,0,0,0,0,0.0088,0.0084,0.0081,0.0079,0.006,0.0055,0.0051,0.0037,0.003,0.003,0.0005,-0.0013,-0.0069,-0.0067,-0.0075,-0.0079,-0.014,-0.014,-0.014,-0.0111,-0.0109,-0.0107,0,0,0,0,0,0,0.0089,0.0081,0.0078,0.0071,0.0067,0.0052,0.0046,0.004,0.0019,0.0016,-0.0015,-0.0024,-0.0047,-0.0066,-0.0062,-0.0097,-0.0107,-0.0109,-0.0082,-0.008,-0.0078,-0.0068,-0.0085,0,0,0,0,0,0.009,0.0087,0.008,0.0075,0.0073,0.0061,0.0055,0.005,0.0033,0.0024,-0.0,-0.0028,-0.0054,-0.0068,-0.0094,-0.0114,-0.0127,-0.0121,-0.0119,-0.0118,-0.0115,-0.015,-0.0151,-0.014,-0.014,-0.014,0,0,0.0091,0.0085,0.0083,0.0075,0.0068,0.007,0.0057,0.0054,0.0055,0.0019,0.0005,-0.0024,-0.0058,-0.008,-0.0092,-0.0096,-0.0121,-0.0118,-0.0116,-0.0114,-0.015,-0.0152,-0.0153,-0.014,-0.014,-0.014,0,0,0.0098,0.0084,0.009,0.0087,0.0083,0.0075,0.0078,0.0066,0.006,0.0047,0.0019,-0.0008,-0.0044,-0.007,-0.0088,-0.009,-0.0111,-0.0099,-0.0082,-0.0116,-0.0118,-0.0119,-0.0109,-0.0109,-0.0097,-0.0097,-0.0097,0,0.0101,0.0106,0.0091,0.0096,0.0096,0.0081,0.0092,0.0082,0.0064,0.005,0.0049,-0.0019,-0.0039,-0.0078,-0.0071,-0.0086,-0.0096,-0.0088,-0.0114,-0.0116,-0.0117,-0.0107,-0.0108,-0.0095,-0.0096,-0.0096,-0.0096,0,0.0116,0.012,0.0122,0.0124,0.012,0.0126,0.0115,0.0106,0.0095,0.0076,0.0039,0.0006,-0.0035,-0.0045,-0.0054,-0.0083,-0.0079,-0.0108,-0.0118,-0.0117,-0.0105,-0.0107,-0.0093,-0.0094,-0.0094,-0.0095,0,0,0.0132,0.0135,0.0137,0.0147,0.0138,0.0139,0.0133,0.0119,0.0107,0.0079,0.0062,0.0018,-0.0011,-0.0031,-0.0057,-0.0079,-0.0081,-0.009,-0.0092,-0.0075,-0.0125,-0.0123,-0.0124,-0.012,-0.0121,-0.0121,-0.0102,0,0.0156,0.0181,0.0168,0.0187,0.0201,0.0176,0.0166,0.0145,0.0123,0.01,0.0053,0.0024,-0.0003,-0.0017,-0.0047,-0.007,-0.0089,-0.0081,-0.0133,-0.0133,-0.013,-0.0129,-0.0136,-0.0121,-0.0104,-0.0104,-0.0104,0,0.018,0.0196,0.0225,0.0223,0.0223,0.0223,0.0201,0.0192,0.0143,0.0123,0.0074,0.0039,0.0009,-0.0013,-0.0067,-0.0061,-0.0088,-0.011,-0.0111,-0.0123,-0.0136,-0.0126,-0.0125,-0.0259,-0.0107,-0.0107,-0.0107,0,0.0213,0.0231,0.0258,0.026,0.0254,0.0251,0.024,0.0195,0.0189,0.0142,0.0143,0.0064,0.0074,-0.0005,-0.0033,-0.0055,-0.0078,-0.0121,-0.0148,-0.0146,-0.017,-0.017,-0.0305,-0.0172,-0.0172,-0.0172,-0.0172,0,0.0243,0.0262,0.0277,0.0292,0.0305,0.0285,0.0278,0.0252,0.0224,0.0239,0.0163,0.0188,0.0078,0.0056,-0.0016,-0.0065,-0.0069,-0.0139,-0.0151,-0.0156,-0.0154,-0.0287,-0.0361,-0.0172,-0.0172,-0.0172,-0.0172,0,0.0269,0.028,0.0313,0.0324,0.0324,0.0334,0.0321,0.0316,0.0291,0.0322,0.032,0.0297,0.0275,0.0166,0.0083,-0.0005,-0.0158,-0.0104,-0.0075,-0.0086,-0.0267,-0.0338,-0.0478,-0.0533,-0.0149,-0.0149,-0.0149,0,0.0282,0.0306,0.0342,0.0365,0.0372,0.0379,0.0379,0.0349,0.0367,0.0414,0.0453,0.0444,0.0474,0.0345,0.0157,0.0006,-0.0125,-0.01,-0.0166,-0.0275,-0.0364,-0.0428,-0.0469,-0.0167,-0.0167,-0.0168,-0.0168,0,0.031,0.0326,0.0356,0.0409,0.0429,0.0449,0.047,0.0503,0.0509,0.0575,0.0692,0.0727,0.0596,0.0454,0.0218,0.0093,-0.0216,-0.0107,-0.0249,-0.0412,-0.0465,-0.0522,-0.0149,-0.0169,-0.0168,-0.0168,-0.0168,-0.0168,0.0328,0.0359,0.0406,0.0451,0.0485,0.0544,0.0585,0.065,0.0739,0.0878,0.0895,0.0992,0.0723,0.04,0.0195,-0.0208,-0.0218,-0.0334,-0.041,-0.0463,-0.0537,-0.0142,-0.0166,-0.0166,-0.0166,-0.0166,-0.0166,0,0.0349,0.039,0.0443,0.0511,0.0566,0.0574,0.0661,0.0735,0.0903,0.104,0.1161,0.1097,0.0758,0.0382,-0.0162,-0.0454,-0.0578,-0.0617,-0.0731,-0.0758,-0.0431,-0.0454,-0.0509,-0.0509,-0.0509,-0.0509,-0.0509,-0.0508,0.0365,0.0421,0.0457,0.0568,0.0623,0.0716,0.0786,0.0931,0.1051,0.1261,0.1339,0.1366,0.1088,0.0084,-0.0586,-0.0748,-0.0972,-0.103,-0.1118,-0.0923,-0.0903,-0.0884,-0.0926,-0.1079,-0.108,-0.1421,-0.1425,-0.1427]}],[{"header":{"parameterUnit":"m.s-1","parameterCategory":2,"la1":30.2991,"la2":30.254,"lo1":-89.0895,"lo2":-89.0444,"dy":0.0017,"dx":0.0017,"nx":28,"ny":28,"refTime":"2025-03-29T03:00:00:Z","depth":"2","parameterNumber":2,"parameterNumberName":"U-component_of_CURRENTS"},"data":[0,0,0,0,0,0,0,0,0,0,0,0,0,0,0,0,0,0,0,0,0,0,0,0,0,0,0,0,0,0,0,0,0,0,0,0,0,0,0,0,0,0,0,0,0,0,0,0,0,0,0,0,0,0,0,0,0,0,0.1628,0.1629,0,0.1693,0.1694,0.1694,0.1718,0.1718,0.1718,0.1718,0.1714,0.1714,0.1714,0,0,0,0,0,0,0,0,0,0,0,0,0,0.1515,0.1517,0.1628,0.1629,0.163,0.1693,0.1694,0.1694,0.1718,0.1718,0.1718,0.1718,0.1714,0.1714,0.1714,0,0,0,0,0,0,0,0,0,0,0,0,0,0.1568,0.1517,0.1628,0.1651,0.1654,0.1693,0.1694,0.1694,0.1718,0.1718,0.1718,0.1718,0.1714,0.1714,0.1714,0.1714,0,0,0.1713,0.1713,0,0,0,0,0,0,0,0,0.1565,0.1572,0.1647,0.1649,0.1653,0.1699,0.1652,0.1698,0.1718,0.1692,0.1718,0.1718,0.1704,0.1704,0.1715,0.1714,0.1714,0.1713,0.1713,0.1713,0.1713,0,0,0,0,0,0,0,0.1562,0.157,0.1652,0.1648,0.1651,0.1655,0.1662,0.1661,0.1694,0.1694,0.1696,0.1707,0.1705,0.1715,0.1715,0.1714,0.1713,0.1713,0.1713,0.1713,0.1735,0.1736,0,0,0,0,0,0,0.1558,0.1566,0.165,0.1654,0.161,0.1657,0.1665,0.1683,0.1696,0.1699,0.1707,0.1708,0.1715,0.1715,0.1715,0.1723,0.1713,0.1713,0.1713,0.1735,0.1736,0.1736,0,0,0,0,0,0,0.1556,0.1565,0.1647,0.1612,0.1623,0.1659,0.1679,0.1684,0.1698,0.1707,0.1708,0.1715,0.1715,0.1715,0.1723,0.1723,0.1713,0.1713,0.1734,0.1735,0.1736,0.1735,0,0,0,0,0,0,0.1552,0.1564,0.1571,0.1613,0.1625,0.1671,0.1679,0.1685,0.1705,0.1707,0.1714,0.1714,0.1715,0.1723,0.1722,0.1722,0.1713,0.1733,0.1734,0.1736,0.1734,0.1736,0.1737,0,0,0,0,0,0.1548,0.1557,0.1571,0.1581,0.1635,0.1671,0.1678,0.1701,0.1705,0.1713,0.1722,0.1714,0.173,0.1723,0.1723,0.1723,0.1732,0.1734,0.1735,0.1734,0.1736,0.1737,0,0,0,0,0,0,0.1511,0.1562,0.1578,0.1602,0.1635,0.1676,0.1683,0.1702,0.1717,0.1715,0.1721,0.1721,0.1728,0.1729,0.1721,0.1735,0.1731,0.1732,0.1729,0.1731,0.1733,0.1722,0.1713,0,0,0,0,0,0.1507,0.1526,0.1575,0.1593,0.1609,0.1646,0.1662,0.1682,0.1704,0.1712,0.1719,0.1727,0.1735,0.1736,0.1742,0.1746,0.1765,0.1748,0.1749,0.1751,0.1743,0.1775,0.1778,0.1741,0.1741,0.1741,0,0,0.1498,0.1527,0.1538,0.1586,0.1611,0.1636,0.1655,0.1681,0.1697,0.1706,0.1719,0.173,0.1738,0.1747,0.175,0.1747,0.1777,0.1753,0.1753,0.1745,0.1777,0.178,0.1784,0.1742,0.1742,0.1742,0,0,0.1491,0.1515,0.1531,0.1559,0.1601,0.1624,0.1633,0.1676,0.1688,0.1706,0.172,0.1733,0.1741,0.1753,0.1758,0.1772,0.1785,0.1774,0.1769,0.1801,0.1804,0.1807,0.1858,0.1865,0.1774,0.1774,0.1774,0,0.1478,0.1509,0.1539,0.1564,0.1584,0.1619,0.164,0.1658,0.1698,0.1709,0.1707,0.1739,0.1743,0.1762,0.1767,0.1773,0.1801,0.1759,0.1802,0.1805,0.1808,0.186,0.1868,0.1774,0.1774,0.1774,0.1774,0,0.1489,0.1513,0.1522,0.1564,0.1586,0.1609,0.1644,0.1663,0.1677,0.1699,0.172,0.1734,0.1757,0.176,0.1762,0.1788,0.1806,0.1801,0.1794,0.1811,0.1866,0.1874,0.1774,0.1774,0.1774,0.1774,0,0,0.1465,0.1519,0.1523,0.1543,0.1589,0.161,0.1632,0.1667,0.1684,0.1705,0.1728,0.174,0.1755,0.1763,0.1776,0.1793,0.1843,0.1801,0.1803,0.1847,0.1932,0.1934,0.1943,0.1845,0.1846,0.1847,0.197,0,0.1466,0.1503,0.1531,0.156,0.1583,0.1618,0.1636,0.1668,0.1691,0.1719,0.1736,0.176,0.1755,0.1771,0.1788,0.1834,0.1861,0.1811,0.1913,0.1916,0.191,0.1951,0.1815,0.1912,0.1979,0.198,0.1981,0,0.1469,0.1495,0.1525,0.1567,0.1579,0.1598,0.1637,0.1662,0.1705,0.1723,0.1752,0.1772,0.1813,0.1797,0.1881,0.1852,0.1888,0.1913,0.1919,0.192,0.1932,0.1901,0.1924,0.1995,0.1994,0.1993,0.1992,0,0.144,0.1488,0.1509,0.1526,0.1578,0.1594,0.1619,0.1662,0.1689,0.1734,0.1764,0.1805,0.1851,0.1885,0.1954,0.192,0.205,0.2016,0.2052,0.2054,0.1957,0.1948,0.2063,0.2062,0.2062,0.2062,0.2061,0,0.1432,0.1447,0.1498,0.1512,0.1536,0.1578,0.1606,0.1639,0.1691,0.174,0.1769,0.1827,0.1873,0.1954,0.1982,0.2068,0.2087,0.2062,0.2084,0.1957,0.1947,0.2022,0.2016,0.2066,0.2065,0.2064,0.2064,0,0.1399,0.1434,0.1461,0.151,0.1526,0.1544,0.1601,0.1627,0.1681,0.1751,0.1771,0.1869,0.1981,0.2038,0.213,0.2128,0.2189,0.221,0.2072,0.2074,0.2162,0.2154,0.2249,0.225,0.2251,0.2251,0.2252,0,0.1386,0.1398,0.1449,0.1468,0.1491,0.1525,0.1553,0.1612,0.1653,0.179,0.1831,0.1958,0.2046,0.219,0.2215,0.2278,0.2272,0.2168,0.2058,0.2167,0.218,0.2171,0.2162,0.1945,0.1943,0.1941,0.194,0,0.1356,0.1374,0.1396,0.1438,0.1469,0.1505,0.1557,0.159,0.1688,0.1763,0.1902,0.1982,0.2125,0.2135,0.2207,0.2213,0.2138,0.2138,0.2302,0.1915,0.1889,0.1899,0.1899,0.1925,0.1927,0.1928,0.1929,0.1929,0.1323,0.133,0.1366,0.1404,0.1442,0.1489,0.1507,0.1584,0.1664,0.1762,0.1885,0.195,0.2005,0.2042,0.2027,0.2013,0.2136,0.2027,0.2028,0.2032,0.1971,0.1947,0.1985,0.1987,0.1988,0.1989,0.1991,0,0.128,0.1299,0.1333,0.1377,0.1406,0.1444,0.151,0.1526,0.1613,0.1708,0.1796,0.1704,0.1747,0.1791,0.1765,0.1788,0.1722,0.1707,0.16,0.162,0.1636,0.1548,0.1454,0.1451,0.1449,0.1447,0,0,0.1253,0.1267,0.1294,0.1331,0.1366,0.1389,0.1418,0.1462,0.1515,0.1523,0.1535,0.1658,0.1758,0.1562,0.1573,0.1508,0.1534,0.1456,0.1902,0.1798,0.181,0.1858,0.1752,0,0,0,0,0]},{"header":{"parameterUnit":"m.s-1","parameterCategory":2,"la1":30.2991,"la2":30.254,"lo1":-89.0895,"lo2":-89.0444,"dy":0.0017,"dx":0.0017,"nx":28,"ny":28,"refTime":"2025-03-29T03:00:00:Z","depth":"2","parameterNumber":3,"parameterNumberName":"V-component_of_CURRENTS"},"data":[0,0,0,0,0,0,0,0,0,0,0,0,0,0,0,0,0,0,0,0,0,0,0,0,0,0,0,0,0,0,0,0,0,0,0,0,0,0,0,0,0,0,0,0,0,0,0,0,0,0,0,0,0,0,0,0,0,0,-0.0172,-0.0172,0,-0.0229,-0.023,-0.023,-0.0248,-0.0248,-0.0248,-0.0247,-0.0313,-0.0314,-0.0316,0,0,0,0,0,0,0,0,0,0,0,0,0,-0.0122,-0.0122,-0.0172,-0.0172,-0.0173,-0.0229,-0.023,-0.0231,-0.0248,-0.0248,-0.0248,-0.0247,-0.0312,-0.0314,-0.0316,0,0,0,0,0,0,0,0,0,0,0,0,0,-0.0156,-0.0122,-0.0171,-0.019,-0.0192,-0.0229,-0.023,-0.0231,-0.0248,-0.0248,-0.0248,-0.0247,-0.0311,-0.0314,-0.0317,-0.0338,0,0,-0.0325,-0.0326,0,0,0,0,0,0,0,0,-0.0154,-0.0158,-0.0186,-0.0189,-0.0191,-0.0233,-0.0237,-0.0268,-0.0248,-0.0225,-0.0247,-0.0247,-0.0288,-0.0292,-0.0301,-0.0341,-0.0344,-0.0325,-0.0327,-0.0328,-0.0329,0,0,0,0,0,0,0,-0.0152,-0.0156,-0.0193,-0.0187,-0.019,-0.0211,-0.0215,-0.0243,-0.0256,-0.0227,-0.0229,-0.0238,-0.0289,-0.0299,-0.0303,-0.0345,-0.0325,-0.0328,-0.033,-0.0331,-0.0394,-0.0394,0,0,0,0,0,0,-0.0146,-0.0153,-0.0191,-0.0195,-0.0174,-0.0212,-0.0217,-0.0218,-0.0255,-0.0261,-0.0238,-0.0239,-0.0294,-0.03,-0.0305,-0.0325,-0.0328,-0.0331,-0.0333,-0.0394,-0.0394,-0.0394,0,0,0,0,0,0,-0.0144,-0.0148,-0.0189,-0.0177,-0.0184,-0.0213,-0.0215,-0.022,-0.0223,-0.0264,-0.027,-0.0236,-0.0294,-0.0302,-0.0336,-0.0328,-0.0332,-0.0335,-0.0394,-0.0394,-0.0394,-0.0369,0,0,0,0,0,0,-0.0143,-0.0147,-0.0144,-0.0176,-0.0184,-0.0204,-0.0216,-0.0221,-0.023,-0.0231,-0.0264,-0.027,-0.0294,-0.0332,-0.0339,-0.0332,-0.0337,-0.0394,-0.0394,-0.0394,-0.0369,-0.0368,-0.0366,0,0,0,0,0,-0.0141,-0.014,-0.0143,-0.0148,-0.0179,-0.0204,-0.0209,-0.0229,-0.023,-0.023,-0.0262,-0.0269,-0.0336,-0.0335,-0.0343,-0.0336,-0.0394,-0.0394,-0.0394,-0.037,-0.0368,-0.0366,0,0,0,0,0,0,-0.0117,-0.0143,-0.0147,-0.0153,-0.0173,-0.0207,-0.0214,-0.0223,-0.0247,-0.0244,-0.0281,-0.029,-0.0315,-0.0331,-0.0328,-0.0353,-0.0361,-0.0363,-0.034,-0.0339,-0.0337,-0.0301,-0.0339,0,0,0,0,0,-0.0109,-0.0115,-0.0142,-0.0146,-0.0155,-0.018,-0.0191,-0.0198,-0.0227,-0.0236,-0.0264,-0.0291,-0.0322,-0.0335,-0.0363,-0.0382,-0.0387,-0.0379,-0.0377,-0.0376,-0.0351,-0.0381,-0.0379,-0.0394,-0.0394,-0.0394,0,0,-0.0102,-0.0118,-0.012,-0.0141,-0.0159,-0.0173,-0.0185,-0.0194,-0.0206,-0.024,-0.0264,-0.029,-0.0328,-0.0352,-0.0362,-0.0363,-0.0373,-0.0376,-0.0374,-0.035,-0.0381,-0.0379,-0.0378,-0.0394,-0.0394,-0.0394,0,0,-0.009,-0.0102,-0.01,-0.0118,-0.0137,-0.0158,-0.0157,-0.0183,-0.0192,-0.0212,-0.0246,-0.0266,-0.0307,-0.0336,-0.0355,-0.036,-0.0368,-0.0365,-0.0324,-0.0354,-0.0353,-0.0351,-0.0347,-0.0346,-0.0359,-0.0359,-0.0359,0,-0.0077,-0.0079,-0.0103,-0.0111,-0.0122,-0.015,-0.0148,-0.0173,-0.0206,-0.0206,-0.021,-0.0266,-0.0296,-0.0334,-0.0328,-0.0355,-0.036,-0.0331,-0.0351,-0.035,-0.0349,-0.0345,-0.0344,-0.0358,-0.0358,-0.0358,-0.0358,0,-0.0069,-0.0069,-0.0073,-0.0093,-0.0108,-0.0112,-0.0147,-0.0155,-0.0162,-0.0176,-0.0197,-0.0242,-0.0267,-0.0283,-0.0301,-0.0315,-0.0316,-0.0351,-0.0353,-0.0346,-0.0342,-0.0342,-0.0356,-0.0357,-0.0357,-0.0357,0,0,-0.0038,-0.0058,-0.0059,-0.0058,-0.0092,-0.0103,-0.0122,-0.0136,-0.0136,-0.0161,-0.0156,-0.0206,-0.0211,-0.0232,-0.0271,-0.0284,-0.0281,-0.0298,-0.0301,-0.0287,-0.0317,-0.0338,-0.0339,-0.0323,-0.0323,-0.0323,-0.0313,0,-0.0017,-0.0022,-0.0034,-0.0038,-0.0045,-0.0068,-0.0083,-0.0101,-0.0113,-0.0121,-0.0155,-0.0175,-0.0205,-0.0209,-0.0229,-0.0268,-0.0279,-0.0278,-0.033,-0.033,-0.0346,-0.034,-0.032,-0.0311,-0.0312,-0.0312,-0.0312,0,-0.0,-0.0008,0.0005,-0.0004,-0.0005,-0.0004,-0.0015,-0.0031,-0.0056,-0.0061,-0.0082,-0.0113,-0.0138,-0.0166,-0.0219,-0.0216,-0.025,-0.0279,-0.0281,-0.0303,-0.035,-0.0321,-0.031,-0.0311,-0.0311,-0.0311,-0.0311,0,0.0027,0.002,0.0039,0.0031,0.0015,0.0036,0.0027,0.0005,0.0002,-0.0022,-0.0005,-0.0064,-0.0064,-0.0132,-0.018,-0.02,-0.0224,-0.0275,-0.0327,-0.0328,-0.0321,-0.0322,-0.0309,-0.0309,-0.0309,-0.0309,-0.0309,0,0.0052,0.006,0.006,0.0068,0.0093,0.0072,0.0098,0.0081,0.0073,0.0099,0.0033,0.0054,-0.005,-0.0079,-0.0153,-0.022,-0.0212,-0.0302,-0.0329,-0.0311,-0.0311,-0.0322,-0.0324,-0.0309,-0.0309,-0.0309,-0.0309,0,0.0084,0.0083,0.0104,0.011,0.0115,0.0136,0.0142,0.0152,0.0144,0.0181,0.0181,0.0154,0.0119,0.0011,-0.0075,-0.0167,-0.025,-0.028,-0.0232,-0.0255,-0.0339,-0.0339,-0.0343,-0.0344,-0.0345,-0.0345,-0.0345,0,0.0101,0.0117,0.014,0.016,0.0178,0.0194,0.0206,0.0189,0.0211,0.0259,0.0294,0.0275,0.0276,0.0131,-0.0039,-0.0192,-0.022,-0.0281,-0.0334,-0.0317,-0.0343,-0.0343,-0.0342,-0.0303,-0.0303,-0.0304,-0.0304,0,0.0132,0.0154,0.017,0.0207,0.024,0.0257,0.0287,0.0317,0.0334,0.0394,0.0486,0.0496,0.0358,0.0211,-0.0022,-0.0131,-0.0266,-0.0289,-0.0282,-0.0308,-0.0282,-0.0307,-0.0307,-0.0304,-0.0304,-0.0304,-0.0304,-0.0304,0.016,0.0184,0.0214,0.025,0.0285,0.0335,0.0374,0.0429,0.0506,0.061,0.0621,0.0657,0.0455,0.0169,-0.0036,-0.0254,-0.0256,-0.034,-0.0339,-0.0338,-0.0345,-0.0323,-0.0352,-0.0352,-0.0352,-0.0352,-0.0352,0,0.0182,0.0206,0.0244,0.0297,0.0334,0.0358,0.0433,0.0485,0.062,0.0715,0.0791,0.0635,0.0451,0.0227,-0.01,-0.0312,-0.0328,-0.0371,-0.0346,-0.0344,-0.0343,-0.0351,-0.0358,-0.0359,-0.0359,-0.036,0,0,0.0197,0.0231,0.0248,0.0318,0.037,0.0455,0.0515,0.0621,0.0703,0.0804,0.0848,0.0813,0.0541,0.0303,0.0017,-0.0164,-0.0205,-0.0201,-0.0175,-0.011,-0.0106,-0.0305,-0.0313,0,0,0,0,0]}],[{"header":{"parameterUnit":"m.s-1","parameterCategory":2,"la1":30.2991,"la2":30.254,"lo1":-89.0895,"lo2":-89.0444,"dy":0.0017,"dx":0.0017,"nx":28,"ny":28,"refTime":"2025-03-29T03:00:00:Z","depth":"4","parameterNumber":2,"parameterNumberName":"U-component_of_CURRENTS"},"data":[0,0,0,0,0,0,0,0,0,0,0,0,0,0,0,0,0,0,0,0,0,0,0,0,0,0,0,0,0,0,0,0,0,0,0,0,0,0,0,0,0,0,0,0,0,0,0,0,0,0,0,0,0,0,0,0,0,0,0.0685,0.0685,0,0.0732,0.0732,0.0733,0.0775,0.0776,0.0776,0.0777,0.0853,0.0855,0.0856,0,0,0,0,0,0,0,0,0,0,0,0,0,0.0695,0.0694,0.0685,0.0685,0.0686,0.0732,0.0732,0.0733,0.0775,0.0776,0.0776,0.0777,0.0852,0.0854,0.0856,0,0,0,0,0,0,0,0,0,0,0,0,0,0.0711,0.0694,0.0684,0.0712,0.0715,0.0732,0.0732,0.0733,0.0775,0.0776,0.0777,0.0777,0.0852,0.0854,0.0857,0.0858,0,0,0.0864,0.0865,0,0,0,0,0,0,0,0,0.071,0.0711,0.0707,0.071,0.0713,0.0748,0.0764,0.0776,0.0775,0.0753,0.0777,0.0778,0.082,0.0825,0.0832,0.0861,0.0864,0.0864,0.0866,0.0867,0.0867,0,0,0,0,0,0,0,0.0709,0.0709,0.0704,0.0708,0.0712,0.0744,0.0746,0.0767,0.0783,0.0755,0.0758,0.0762,0.0822,0.083,0.0835,0.0866,0.0864,0.0866,0.0868,0.0869,0.1005,0.1007,0,0,0,0,0,0,0.0698,0.0708,0.0702,0.0705,0.0713,0.0743,0.0746,0.0737,0.0782,0.0789,0.0761,0.0764,0.0826,0.0832,0.0837,0.0933,0.0867,0.0869,0.087,0.1003,0.1006,0.1008,0,0,0,0,0,0,0.0697,0.0696,0.07,0.0708,0.0711,0.0741,0.0731,0.0737,0.0767,0.0787,0.0795,0.0787,0.0826,0.0834,0.0889,0.0933,0.087,0.0872,0.1,0.1004,0.1007,0.1065,0,0,0,0,0,0,0.0697,0.0695,0.0701,0.0707,0.071,0.0725,0.0731,0.0738,0.0767,0.0771,0.0811,0.0818,0.0827,0.0885,0.0891,0.0935,0.0874,0.0998,0.1002,0.1006,0.106,0.107,0.1078,0,0,0,0,0,0.0697,0.0698,0.0701,0.0702,0.0711,0.0725,0.0731,0.0755,0.0767,0.0784,0.0822,0.0817,0.0916,0.0889,0.0895,0.0941,0.0996,0.1001,0.1005,0.1056,0.1068,0.1078,0,0,0,0,0,0,0.0713,0.0702,0.0706,0.0705,0.0721,0.0733,0.0744,0.0766,0.0807,0.0816,0.084,0.085,0.0911,0.092,0.0889,0.0994,0.0957,0.0963,0.0994,0.1005,0.1013,0.1013,0.0876,0,0,0,0,0,0.0715,0.071,0.0712,0.0717,0.0714,0.0733,0.0747,0.0767,0.0795,0.0814,0.0851,0.0892,0.0932,0.0963,0.099,0.1047,0.1044,0.1084,0.1092,0.11,0.1106,0.1143,0.1155,0.1024,0.1024,0.1024,0,0,0.0722,0.0719,0.0717,0.0721,0.0724,0.0744,0.0743,0.0764,0.0814,0.0815,0.0897,0.0917,0.0951,0.1016,0.1046,0.1034,0.1136,0.1106,0.1112,0.1114,0.1149,0.1162,0.1173,0.1028,0.1027,0.1026,0,0,0.0737,0.0724,0.0727,0.074,0.0754,0.0762,0.0772,0.08,0.0842,0.0913,0.093,0.0979,0.1049,0.1083,0.1109,0.1183,0.1173,0.12,0.1257,0.1293,0.1304,0.1313,0.1321,0.1331,0.1216,0.1216,0.1216,0,0.0754,0.0741,0.0736,0.0752,0.0761,0.0772,0.0789,0.084,0.0901,0.0925,0.0951,0.105,0.1083,0.1154,0.1198,0.1203,0.1213,0.1211,0.1303,0.1313,0.1321,0.1327,0.1337,0.1219,0.1219,0.1219,0.1218,0,0.0765,0.0769,0.0766,0.0782,0.0809,0.0811,0.0865,0.0908,0.0954,0.0996,0.1079,0.1137,0.1195,0.1223,0.1246,0.1327,0.131,0.1298,0.1271,0.1338,0.134,0.1349,0.1224,0.1223,0.1222,0.1221,0,0,0.0753,0.0765,0.0767,0.0782,0.0812,0.0836,0.0904,0.0945,0.0988,0.1078,0.1145,0.1242,0.1265,0.1298,0.1332,0.1385,0.1465,0.1387,0.1388,0.1385,0.1535,0.1456,0.1457,0.1475,0.1477,0.1479,0.1509,0,0.075,0.0767,0.0784,0.0827,0.0828,0.0864,0.0924,0.0987,0.1046,0.1122,0.1195,0.1281,0.1302,0.1355,0.1408,0.1461,0.1494,0.1457,0.148,0.148,0.1393,0.1467,0.1486,0.1516,0.1518,0.1519,0.1521,0,0.074,0.0753,0.0785,0.0821,0.0826,0.0884,0.0943,0.1009,0.1099,0.1151,0.1233,0.1296,0.1418,0.1423,0.1536,0.1517,0.1533,0.1556,0.1557,0.1469,0.1418,0.1439,0.1536,0.1535,0.1534,0.1533,0.1532,0,0.0712,0.0745,0.0769,0.0789,0.0852,0.0898,0.0935,0.1015,0.107,0.1198,0.1235,0.1362,0.1453,0.1516,0.1586,0.1582,0.1673,0.1661,0.1582,0.1575,0.1607,0.1597,0.1702,0.1702,0.1702,0.1702,0.1702,0,0.0674,0.0697,0.0774,0.0799,0.0835,0.0909,0.0967,0.1014,0.1115,0.1159,0.127,0.1332,0.1487,0.1554,0.1598,0.1625,0.1681,0.1603,0.1589,0.163,0.1623,0.1613,0.1602,0.1703,0.1702,0.1702,0.1702,0,0.0629,0.0677,0.0714,0.0797,0.083,0.0875,0.0968,0.1001,0.1102,0.1172,0.1228,0.1359,0.1468,0.1552,0.1661,0.1629,0.1668,0.1636,0.1667,0.1651,0.1539,0.1532,0.1584,0.1582,0.158,0.1578,0.1577,0,0.0611,0.063,0.0703,0.0742,0.079,0.0864,0.0891,0.0992,0.102,0.1162,0.1174,0.1332,0.1403,0.1482,0.1588,0.1653,0.1627,0.1608,0.1594,0.1553,0.1534,0.1529,0.1524,0.1574,0.1573,0.1573,0.1572,0,0.058,0.0609,0.0624,0.0674,0.0737,0.077,0.0824,0.0844,0.095,0.1044,0.113,0.1229,0.1325,0.1451,0.1497,0.1534,0.1623,0.1588,0.1592,0.1579,0.1541,0.1522,0.152,0.1565,0.1566,0.1567,0.1567,0,0.0555,0.0531,0.0557,0.0595,0.0655,0.0677,0.0709,0.0759,0.0819,0.0969,0.1002,0.1162,0.1304,0.1385,0.1432,0.1477,0.1476,0.1421,0.1434,0.1442,0.139,0.1319,0.1277,0,0,0,0,0,0.0535,0.0487,0.0488,0.052,0.0566,0.0611,0.066,0.0698,0.0791,0.0822,0.0922,0.1018,0.1161,0.1254,0.1283,0.1379,0.1468,0.1404,0.1406,0.1528,0.1536,0.1491,0,0,0,0,0,0,0.0516,0.0497,0.0446,0.046,0.0482,0.0522,0.0557,0.0619,0.0637,0.0758,0.0847,0.0958,0.1113,0.1156,0.1272,0.1298,0.1277,0.1513,0.151,0.1524,0.1531,0.1537,0.1494,0,0,0,0,0]},{"header":{"parameterUnit":"m.s-1","parameterCategory":2,"la1":30.2991,"la2":30.254,"lo1":-89.0895,"lo2":-89.0444,"dy":0.0017,"dx":0.0017,"nx":28,"ny":28,"refTime":"2025-03-29T03:00:00:Z","depth":"4","parameterNumber":3,"parameterNumberName":"V-component_of_CURRENTS"},"data":[0,0,0,0,0,0,0,0,0,0,0,0,0,0,0,0,0,0,0,0,0,0,0,0,0,0,0,0,0,0,0,0,0,0,0,0,0,0,0,0,0,0,0,0,0,0,0,0,0,0,0,0,0,0,0,0,0,0,-0.0218,-0.0218,0,-0.025,-0.025,-0.0251,-0.0318,-0.0319,-0.0321,-0.0322,-0.0401,-0.0402,-0.0403,0,0,0,0,0,0,0,0,0,0,0,0,0,-0.0184,-0.0185,-0.0218,-0.0218,-0.0218,-0.025,-0.025,-0.0251,-0.0318,-0.0319,-0.0321,-0.0323,-0.0401,-0.0402,-0.0403,0,0,0,0,0,0,0,0,0,0,0,0,0,-0.0205,-0.0185,-0.0217,-0.0256,-0.026,-0.025,-0.025,-0.0251,-0.0317,-0.0319,-0.0321,-0.0323,-0.0401,-0.0402,-0.0403,-0.0367,0,0,-0.0406,-0.0407,0,0,0,0,0,0,0,0,-0.0204,-0.0206,-0.025,-0.0254,-0.0258,-0.0283,-0.0268,-0.0293,-0.0317,-0.0295,-0.0322,-0.0324,-0.0365,-0.0369,-0.0369,-0.0371,-0.0375,-0.0407,-0.0407,-0.0408,-0.0408,0,0,0,0,0,0,0,-0.0202,-0.0205,-0.023,-0.025,-0.0255,-0.0262,-0.0268,-0.0272,-0.0318,-0.0297,-0.0302,-0.0306,-0.0368,-0.0367,-0.0371,-0.0376,-0.0407,-0.0408,-0.0408,-0.0409,-0.0398,-0.0397,0,0,0,0,0,0,-0.0199,-0.0204,-0.0229,-0.0231,-0.0237,-0.0261,-0.0267,-0.0272,-0.0317,-0.0325,-0.0304,-0.0309,-0.0364,-0.037,-0.0374,-0.035,-0.0408,-0.0409,-0.041,-0.0399,-0.0397,-0.0396,0,0,0,0,0,0,-0.0198,-0.0201,-0.0227,-0.0219,-0.0223,-0.026,-0.0264,-0.0272,-0.0284,-0.0322,-0.0332,-0.0312,-0.0366,-0.0373,-0.0386,-0.0353,-0.0409,-0.041,-0.04,-0.0398,-0.0397,-0.0291,0,0,0,0,0,0,-0.0197,-0.02,-0.0197,-0.0218,-0.0223,-0.0211,-0.0263,-0.0271,-0.0283,-0.029,-0.0331,-0.034,-0.0368,-0.0384,-0.0387,-0.0356,-0.0411,-0.0401,-0.0399,-0.0397,-0.0296,-0.0286,-0.0278,0,0,0,0,0,-0.0196,-0.0177,-0.0196,-0.0199,-0.0219,-0.021,-0.0211,-0.0245,-0.0282,-0.0269,-0.031,-0.0339,-0.0374,-0.0383,-0.0388,-0.0356,-0.0402,-0.04,-0.0397,-0.03,-0.0288,-0.0278,0,0,0,0,0,0,-0.0155,-0.0182,-0.0204,-0.0194,-0.02,-0.0221,-0.0207,-0.0241,-0.0261,-0.0272,-0.0324,-0.0334,-0.033,-0.036,-0.0369,-0.0349,-0.0393,-0.0391,-0.0318,-0.0307,-0.0298,-0.0309,-0.0412,0,0,0,0,0,-0.0145,-0.0143,-0.0164,-0.0155,-0.015,-0.018,-0.0182,-0.0206,-0.0229,-0.0241,-0.0276,-0.0308,-0.0318,-0.0329,-0.0342,-0.0329,-0.0373,-0.0314,-0.0305,-0.0297,-0.0309,-0.0329,-0.0323,-0.0389,-0.0389,-0.0389,0,0,-0.0127,-0.0141,-0.0141,-0.0147,-0.015,-0.0131,-0.0186,-0.0177,-0.0172,-0.0244,-0.0244,-0.0273,-0.0308,-0.0294,-0.0295,-0.0319,-0.0301,-0.0294,-0.0286,-0.0304,-0.0326,-0.032,-0.0314,-0.0387,-0.0388,-0.0388,0,0,-0.008,-0.0097,-0.0075,-0.0072,-0.0076,-0.0089,-0.0088,-0.0108,-0.0124,-0.0128,-0.0176,-0.0192,-0.0214,-0.0229,-0.0241,-0.0191,-0.025,-0.0194,-0.0157,-0.0175,-0.017,-0.0166,-0.0213,-0.0214,-0.0192,-0.0192,-0.0191,0,-0.006,-0.0044,-0.0063,-0.0035,-0.0035,-0.0069,-0.0045,-0.0046,-0.0076,-0.009,-0.0118,-0.0156,-0.0182,-0.0173,-0.0162,-0.0169,-0.0206,-0.019,-0.0162,-0.016,-0.0157,-0.0207,-0.021,-0.0186,-0.0187,-0.0187,-0.0188,0,-0.0004,0.0016,0.0039,0.0051,0.0056,0.0076,0.0064,0.0062,0.0027,0.0005,-0.0004,-0.0039,-0.0075,-0.0069,-0.0104,-0.0093,-0.0134,-0.0143,-0.0187,-0.0144,-0.02,-0.0204,-0.0179,-0.018,-0.0182,-0.0183,0,0,0.0011,0.0064,0.0068,0.0082,0.0094,0.0098,0.0125,0.0121,0.0118,0.0098,0.0085,0.0074,0.0031,0.0013,-0.0019,-0.0036,-0.0048,-0.0086,-0.009,-0.013,-0.0116,-0.0108,-0.0113,-0.0053,-0.0053,-0.0053,-0.0161,0,0.0054,0.0114,0.0123,0.0169,0.0197,0.0177,0.0199,0.0191,0.0171,0.0159,0.0127,0.0111,0.0075,0.0051,0.0035,-0.0037,-0.0057,-0.0021,-0.0157,-0.0162,-0.0155,-0.0116,-0.0053,-0.0165,-0.0166,-0.0167,-0.0168,0,0.0092,0.0125,0.0178,0.021,0.0218,0.0234,0.0226,0.0243,0.0236,0.0218,0.0198,0.0162,0.0127,0.0097,0.0004,0.0024,-0.0042,-0.0091,-0.0096,-0.0133,-0.0161,-0.0219,-0.0177,-0.0176,-0.0176,-0.0175,-0.0174,0,0.0089,0.0153,0.0185,0.0198,0.024,0.0241,0.0248,0.025,0.0259,0.0246,0.0235,0.0197,0.0158,0.0089,-0.0019,-0.0016,-0.0127,-0.0133,-0.0184,-0.0186,-0.021,-0.0214,-0.0185,-0.0185,-0.0184,-0.0184,-0.0184,0,0.0113,0.0141,0.0183,0.0205,0.0225,0.0244,0.0261,0.0264,0.0277,0.0288,0.0257,0.0245,0.0153,0.008,-0.001,-0.0119,-0.0123,-0.0181,-0.0204,-0.0164,-0.0161,-0.0214,-0.0216,-0.0188,-0.0187,-0.0186,-0.0186,0,0.0109,0.0144,0.0183,0.0224,0.0231,0.0237,0.027,0.0289,0.0296,0.0305,0.0299,0.0261,0.0169,0.0075,-0.0052,-0.0113,-0.0211,-0.0244,-0.0215,-0.0235,-0.0267,-0.0263,-0.0317,-0.0318,-0.0318,-0.0318,-0.0319,0,0.0116,0.014,0.0184,0.0198,0.0214,0.0236,0.0259,0.0288,0.0309,0.0312,0.0312,0.0245,0.0204,0.0034,-0.0064,-0.022,-0.0232,-0.0296,-0.0258,-0.0259,-0.0277,-0.0272,-0.0267,-0.0319,-0.0319,-0.0319,-0.032,0,0.0124,0.0133,0.0162,0.0198,0.0217,0.0252,0.0284,0.0301,0.0333,0.0337,0.0321,0.0252,0.0157,0.0041,-0.0075,-0.0185,-0.026,-0.03,-0.03,-0.0265,-0.0262,-0.0278,-0.0273,-0.0321,-0.0321,-0.032,-0.032,0,0.0118,0.0126,0.0164,0.0187,0.022,0.0259,0.028,0.0308,0.0333,0.0342,0.0329,0.0247,0.0199,0.0057,-0.0054,-0.0153,-0.0176,-0.0212,-0.0216,-0.0216,-0.0142,-0.0121,-0.0154,0,0,0,0,0,0.0114,0.0125,0.0155,0.019,0.0227,0.0248,0.0296,0.032,0.0342,0.0337,0.0342,0.0262,0.0125,0.0067,-0.003,-0.0072,-0.0205,-0.0191,-0.0251,-0.0327,-0.0326,-0.0253,0,0,0,0,0,0,0.0115,0.0133,0.0151,0.019,0.0213,0.0261,0.0292,0.0312,0.0316,0.0323,0.0257,0.0228,0.0097,0.0178,-0.0035,-0.0065,-0.0119,-0.0253,-0.0255,-0.0328,-0.0327,-0.0326,-0.025,0,0,0,0,0]}]]